Location: Unspecified
(38.9820°N, 94.4650°W)
Time: 01:44:15
(UTC-05:00)

Hubble Space Telescope - Visible Passes

Search period start: 20 April 2018 00:00
Search period end: 30 April 2018 00:00
Orbit: 537 x 541 km, 28.5° (Epoch: 19 April)

Date Brightness Start Highest point End Pass type
(mag) Time Alt. Az. Time Alt. Az. Time Alt. Az.
26 Apr 3.1 21:55:19 10° SSW 21:56:00 12° SSW 21:56:00 12° SSW visible
27 Apr 2.7 21:44:44 10° SW 21:46:36 16° S 21:46:36 16° S visible
28 Apr 2.4 21:34:13 10° SW 21:37:05 18° S 21:37:05 18° S visible
29 Apr 2.4 21:23:45 10° SW 21:26:41 19° S 21:27:29 18° SSE visible
